This demonstration page uses our WeatherBlox Daily Observations layout. Learn more.

Left ArrowRight Arrow

39.29038, -76.61219

Hourly Observations for May 24, 2021

Temp ( °F °C ) Dew Point ( °F °C ) Humidity (%) Winds ( mph kmh ) Pressure ( in mb ) Visibility ( mi km ) Precip ( " mm )
12:54 am 00:54 Mostly Cloudy 80 26.7 63 17.2 56 56 N 5 7 30.03 1017 10 16 N/A
1:54 am 01:54 Mostly Cloudy 80 26.7 63 17.2 56 56 NE 10 17 30.05 1018 10 16 N/A
2:54 am 02:54 Mostly Cloudy 79 26.1 63 17.2 58 58 NNE 10 17 30.06 1018 10 16 N/A
3:54 am 03:54 Mostly Cloudy 77 25 62 16.7 60 60 NNE 13 20 30.08 1019 10 16 N/A
4:54 am 04:54 Cloudy 75 23.9 59 15 58 58 NNE 8 13 30.09 1019 10 16 N/A
5:54 am 05:54 Cloudy with Light Rain 69 20.6 63 17.2 81 81 E 15 24 30.13 1020 10 16 0.01 0.25
6:30 am 06:30 Cloudy 67 19.4 62 16.7 84 84 E 13 20 30.16 1021 10 16 0.00 0.00
6:54 am 06:54 Cloudy with Light Rain 66 18.9 58 14.4 75 75 E 15 24 30.18 1022 10 16 0.00 0.00
7:43 am 07:43 Cloudy with Light Rain 65 18.3 55 12.8 70 70 E 10 17 30.21 1023 10 16 0.00 0.00
7:54 am 07:54 Cloudy with Light Rain 65 18.3 55 12.8 70 70 E 12 19 30.21 1023 10 16 0.00 0.00
8:54 am 08:54 Cloudy with Light Rain 66 18.9 53 11.7 63 63 E 13 20 30.22 1024 10 16 0.00 0.00
9:54 am 09:54 Cloudy 66 18.9 53 11.7 63 63 ESE 13 20 30.23 1024 10 16 0.01 0.25
10:54 am 10:54 Cloudy 66 18.9 50 10 56 56 E 14 22 30.25 1024 10 16 N/A
11:54 am 11:54 Cloudy 66 18.9 49 9.4 54 54 E 12 19 30.25 1025 10 16 N/A
12:54 pm 12:54 Cloudy 66 18.9 49 9.4 54 54 E 13 20 30.26 1025 10 16 N/A
1:54 pm 13:54 Cloudy with Light Rain 66 18.9 49 9.4 54 54 ESE 10 17 30.26 1025 10 16 0.00 0.00
2:54 pm 14:54 Cloudy with Light Rain 61 16.1 54 12.2 78 78 E 9 15 30.26 1025 4 6 0.06 1.52
3:54 pm 15:54 Cloudy with Light Rain 61 16.1 55 12.8 81 81 E 9 15 30.26 1025 10 16 0.05 1.27
4:54 pm 16:54 Cloudy 62 16.7 55 12.8 78 78 ESE 10 17 30.24 1024 10 16 0.00 0.00
5:54 pm 17:54 Cloudy 62 16.7 52 11.1 70 70 ESE 9 15 30.25 1025 10 16 N/A
6:54 pm 18:54 Cloudy 62 16.7 52 11.1 70 70 E 6 9 30.26 1025 10 16 N/A
7:54 pm 19:54 Cloudy with Light Rain 58 14.4 55 12.8 90 90 SSE 5 7 30.27 1025 3 4 0.11 2.79
8:19 pm 20:19 Cloudy 58 14.4 54 12.2 87 87 ESE 7 11 30.28 1025 10 16 0.00 0.00
8:54 pm 20:54 Cloudy 58 14.4 54 12.2 87 87 E 8 13 30.29 1026 10 16 0.00 0.00
9:54 pm 21:54 Cloudy 57 13.9 52 11.1 83 83 ESE 7 11 30.31 1026 10 16 N/A
10:54 pm 22:54 Cloudy 57 13.9 53 11.7 87 87 E 8 13 30.32 1027 10 16 N/A
11:54 pm 23:54 Cloudy 57 13.9 53 11.7 87 87 E 6 9 30.31 1027 10 16 N/A

Powered by AerisWeather